Weather in Arkhangel'skoye

Russia / Tula Oblast     53°19′48″N   37°06′35″E
temp.,
°C
wind,
m/s
gust,
m/s
humid.,
%
clouds,
%
prec.,
mm/h
press.,
hPa
HPBL,
m
19 january, wed
wed1900:00−10n71591100 0.0 1016486
03:00−12n6139489 0.1 1017326
06:00−14nnw4119790 0.0 1019201
09:00−18nnw369990 0.0 102177
12:00−13nw249497 0.0 1020121
15:00−11wnw249343 0.0 1020113
18:00−18sw229832 0.0 102022
21:00−16sw369776 0.0 101972
20 january, thu
thu2000:00−13ssw379767 0.0 1017110
03:00−11ssw4109799 0.1 1016182
06:00−11s51197100 0.0 1014203
09:00−10s61396100 0.1 1014273
12:00−8s71595100 0.1 1012394
15:00−6s7169499 0.1 1010478
18:00−6s81793100 0.1 1008510
21:00−6s81793100 0.1 1008554
21 january, fri
fri2100:00−5s81595100 0.4 1007591
03:00−5s71395100 1.8 1007512
06:00−5sse61196100 1.3 1005427
09:00−5sse51196100 2.7 1004447
12:00−4s51096100 1.1 1003512
15:00−3ssw61096100 2.3 1002754
18:00−7ssw5119368 0.3 1004255
21:00−9s51294100 0.3 1005260
22 january, sat
sat2200:00−7s71493100 0.1 1005452
03:00−7sse71394100 0.3 1005483
06:00−7sse61294100 0.3 1006412
09:00−8sse61194100 0.5 1008339
12:00−7sse599598 0.3 1011308
15:00−8se479565 0.3 1012196
18:00−9se379680 0.1 1015148
21:00−11sse369769 0.2 101790
23 january, sun
sun2300:00−16se229988 0.0 102012
03:00−13ese239784 0.1 102238
06:00−15ese229972 0.1 102422
09:00−17se2210097 0.1 102716
12:00−10ese119674 0.0 102859
15:00−10e12968 0.0 102918
18:00−17e229960 0.0 103211
21:00−19e2210081 0.0 103312